User: anonymous   Login
Location: Bouchavesnes-Bergen
(49.9859°N, 2.9203°E)
Time: 12:50:03
(UTC+00:00)
Language:

CZ-4C R/B - Orbit

View from above orbital plane
View from above orbital plane
View from above satellite
View from above satellite

Ground track
Ground track

The orbit data is extracted from the following two-line orbital elements,

1 36416U 10009D   22276.82130469  .00000126  00000-0  85840-4 0  9990
2 36416  63.4107 104.6460 0577183 356.6219   3.0990 13.69743659629334
Epoch (UTC): 03 October 2022 19:42:40
Eccentricity: 0.0577183
inclination: 63.4107°
perigee height: 574 km
apogee height: 1426 km
right ascension of ascending node: 104.6460°
argument of perigee: 356.6219°
revolutions per day: 13.69743659
mean anomaly at epoch: 3.0990°
orbit number at epoch: 62933

The dashed part of the orbit path shows where the satellite is in the earth's shadow,  

DLR